Location: Port-Aux-Quilles Astronomical Observatory
(47.9769°N, 69.9642°W)
Time: 07:44:08
(UTC-05:00)

OTV 5 (USA 277) - Pass Details

Date: 30 October 2019
Orbit: 310 x 324 km, 54.5° (Epoch: 17 October)

Event Time Altitude Azimuth Distance (km) Brightness Sun altitude
Rises 19:37:01 0° 246° (WSW) 2,058 ? -22.6°
Reaches altitude 10° 19:38:59 10° 249° (WSW) 1,231 ? -22.9°
Enters shadow 19:40:14 24° 256° (WSW) 730 ? -23.1°
